Hourly Data Report for September 18, 2017

All times are specified in Local Standard Time (LST). Add 1 hour to adjust for Daylight Saving Time where and when it is observed.

SAINT JOHN A
NEW BRUNSWICK

45°18'58.000" N
65°53'24.000" W
108.80 m
8104901
71609
YSJ

Download Data

Hourly Data (September 2017)
Hourly Data Report for September 18, 2017
Temp Definition
°C
Dew Point Temp Definition
°C
Rel Hum Definition
%
Wind Dir Definition
10's deg

Wind Spd Definition
km/h
Visibility Definition
km
Stn Press Definition
kPa
Hmdx Definition


Wind Chill Definition


Weather Definition


TIME
00:00 Legend Double Dagger 13.0 12.9 99 16 8 0.4 100.94     Fog
01:00 Legend Double Dagger 13.0 12.9 100 15 9 0.4 100.96     Fog
02:00 Legend Double Dagger 12.9 12.8 100 16 5 0.4 100.97     Fog
03:00 Legend Double Dagger 12.8 12.7 100 19 8 0.8 100.96     Fog
04:00 Legend Double Dagger 12.8 12.8 100 18 8 0.8 100.94     Fog
05:00 Legend Double Dagger 12.8 12.7 100 18 5 0.8 100.96     Fog
06:00 Legend Double Dagger 12.9 12.9 100 17 6 0.4 101.02     Fog
07:00 Legend Double Dagger 13.0 12.9 100 18 9 0.2 101.06     Fog
08:00 Legend Double Dagger 13.7 13.7 100 18 3 0.4 101.09     Fog
09:00 Legend Double Dagger 14.3 14.2 99 17 8 0.6 101.11     Fog
10:00 Legend Double Dagger 14.6 14.5 99 15 13 0.8 101.12     Fog
11:00 Legend Double Dagger 16.2 15.0 93 19 13 4.8 101.14     Fog
12:00 Legend Double Dagger 16.1 14.9 92 24 9 4.8 101.13     Fog
13:00 Legend Double Dagger 17.1 15.2 88 21 7 8.1 101.10     Fog
14:00 Legend Double Dagger 17.9 15.6 86 19 8 12.9 101.08     Cloudy
15:00 Legend Double Dagger 18.2 16.2 88 19 7 9.7 101.08     Fog
16:00 Legend Double Dagger 17.5 16.2 92 22 9 9.7 101.09     Fog
17:00 Legend Double Dagger 17.0 15.6 91 15 7 12.9 101.10     Cloudy
18:00 Legend Double Dagger 16.8 15.6 93 15 4 12.9 101.12     LegendNANA
19:00 Legend Double Dagger 16.4 15.6 95 17 5 8.1 101.11     Fog
20:00 Legend Double Dagger 16.2 15.3 95 36 1 8.1 101.14     Fog
21:00 Legend Double Dagger 16.4 15.6 95 36 1 4.8 101.15     Fog
22:00 Legend Double Dagger 16.4 15.8 96 15 7 6.4 101.16     Fog
23:00 Legend Double Dagger 16.1 15.7 98 13 9 3.2 101.15     Fog

Notes on Data Quality.

Legend

  • E = Estimated
  • M = Missing
  • NA = Not Available
  • ‡ = Partner data that is not subject to review by the National Climate Archives
Date modified: